星链-30844 (STARLINK-30844 )

导读

STARLINK-30844是美国太空探索技术公司Starlink星链星座的成员,于2023年11月22日发射入轨。星链星座旨在构建覆盖全球的卫星互联网系统,该卫星承担着为全球偏远地区等提供宽带网络接入服务的任务,也是Starlink大规模组网部署进程中的一环,进一步完善了星链星座的全球覆盖能力。

基本信息
目录编号:
58403
目录名称:
STARLINK-30844
国际标识:
2023-180B
轨道中心:
EARTH
卫星名称:
星链-30844
卫星全名:
星链-30844 (STARLINK-30844 )
卫星状态:
在轨 (已飞行1017 天)
发射日期:
2023-11-22 UTC
国别 :
美国 (US)
星等 :
--
轨道信息
数据来源 国际轨道数据 AOE轨道数据
星历时间 2026-09-04T00:17:09+0800
12小时前
查看轨道信息
2026-09-03T04:00:00+0800
1天前
查看轨道信息
半长轴 6861.197km 6861.192km
偏心率 0.000173 0.0002012
轨道倾角 43.002° 43.000°
近地点辐角 268.811° 254.150°
升交点赤经 127.663° 132.437°
平近点角 91.254° 132.200°
近地点 481.873km 481.674km
远地点 484.247km 484.436km
周期 94.267分钟 94.267分钟
每日圈数 15.275765 15.275781
详细信息
固有亮度:
5
最大亮度:
0.3
卫星平台:
Starlink v2.0 mini
覆盖范围:
全球
运营商:
太空探索技术公司
运营商所在国:
美国
制造商(研发单位):
太空探索技术公司
制造商所在国:
美国
使用方式:
暂无
卫星简介
星链(Starlink)计划是由太空探索技术公司(SpaceX)提出的一个巨型低轨卫星互联网星座项目,计划在2019年至2024年间在太空搭建由约1.2万颗卫星组成的“星链”网络,其中1584颗将部署在地球上空550千米处的近地轨道,并从2020年开始工作。该卫星仍在工作。
2D轨道图
3D轨道图
轨道高度分析图
轨道倾角分析图
轨道综合分析图
查看轨道综合分析图
交会数据列表
事件ID 空间交会对象 最接近时刻(TCA) 交会距离 交会风险概率(CRP) 交会风险指数(CRI) 操作
CDM_260904-133405-840306-356521
2026-09-04T
13:34:47+0000
0.490 km
远距离
1.689512E-4 高风险 0.8
CDM_260903-210605-840306-356521
2026-09-03T
21:06:11+0000
0.512 km
远距离
1.520882E-4 高风险 0.79
CDM_260905-144505-840306-442821
2026-09-05T
14:45:34+0000
1.612 km
极远距离
4.596301E-6 低风险 0.48
CDM_260903-224005-840306-356521
2026-09-03T
22:40:20+0000
1.835 km
极远距离
2.775712E-6 低风险 0.44
CDM_260904-120005-840306-356521
2026-09-04T
12:00:38+0000
2.434 km
极远距离
1.447527E-6 低风险 0.38
CDM_260903-193205-840306-356522
2026-09-03T
19:32:02+0000
2.637 km
极远距离
1.263933E-6 低风险 0.37
CDM_260904-150805-840306-356521
2026-09-04T
15:08:56+0000
2.748 km
极远距离
1.188484E-6 低风险 0.36